Home   Weather   Alice Springs   Past weeks
Flag for Australia

Past Weather in Alice Springs, Northern Territory, Australia — Yesterday and Last 2 Weeks

Now
88 °F

Scattered clouds.


Feels Like: 88 °F
Forecast: 74 / 68 °F
Wind: 15 mph from Northeast

Location: Alice Springs Aerodrome

Current Time: Mar 24, 2019 at 10:47:19 am

Latest Report: Mar 24, 2019 at 9:30 am


Visibility: N/A

Pressure: 29.86 "Hg (27.97 "Hg at 581m altitude)

Humidity: 43%

Dew Point: 63 °F

Location of Alice SpringsLocation

Past Weather in Alice Springs — Graph

°F

Alice Springs Temperature Yesterday

Maximum temperature yesterday: 102 °F (at 1:30 pm)
Minimum temperature yesterday: 70 °F (at 5:00 am)
Average temperature yesterday: 88 °F

High & Low Weather Summary for the Past Weeks

 TemperatureHumidityPressure
High108 °F (Mar 11, 3:00 pm)51% (Mar 24, 6:30 am)30.09 "Hg (Mar 24, 6:30 am)
Low61 °F (Mar 18, 6:00 am)6% (Mar 9, 12:00 pm)29.71 "Hg (Mar 23, 4:00 pm)
Average86 °F19%29.93 "Hg
* Reported Mar 9 9:30 am — Mar 24 9:30 am, Alice Springs. Weather by CustomWeather, © 2019

Note: Actual official high and low records may vary slightly from our data, if they occured in-between our weather recording intervals... More about our weather records

Advertising

Alice Springs Weather History for the Previous 24 Hours

Scroll right to see more
 ConditionsComfort  
Time TempWeatherWind HumidityBarometerVisibility
9:30 am
Sun, Mar 24
88 °FScattered clouds.15 mph43%29.86 "HgN/A
9:00 am86 °FSunny.16 mph46%29.86 "HgN/A
8:30 am84 °FSunny.13 mph48%29.86 "HgN/A
8:00 am84 °FSunny.10 mph48%29.83 "HgN/A
7:30 am82 °FSunny.8 mph51%29.83 "HgN/A
7:00 am82 °FClear.8 mph51%29.83 "HgN/A
6:30 am82 °FClear.10 mph51%29.83 "HgN/A
6:00 am82 °FClear.10 mph48%29.80 "HgN/A
5:30 am82 °FClear.9 mph48%29.80 "HgN/A
5:00 am84 °FClear.13 mph45%29.80 "HgN/A
4:30 am84 °FClear.10 mph45%29.77 "HgN/A
4:00 am84 °FClear.9 mph43%29.77 "HgN/A
3:30 am84 °FClear.10 mph43%29.77 "HgN/A
3:00 am86 °FClear.8 mph40%29.77 "HgN/A
2:30 am86 °FClear.6 mph40%29.77 "HgN/A
2:00 am84 °FClear.7 mph43%29.77 "HgN/A
1:30 am84 °FClear.6 mph40%29.80 "HgN/A
1:00 am84 °FClear.6 mph37%29.80 "HgN/A
12:30 am86 °FClear.6 mph35%29.80 "HgN/A
12:00 am86 °FClear.7 mph33%29.80 "HgN/A
11:30 pm
Sat, Mar 23
88 °FClear.8 mph31%29.80 "HgN/A
11:00 pm90 °FClear.12 mph29%29.80 "HgN/A
10:30 pm90 °FClear.12 mph26%29.80 "HgN/A
10:00 pm86 °FClear.8 mph24%29.80 "HgN/A
9:30 pm88 °FClear.8 mph21%29.80 "HgN/A
9:00 pm90 °FClear.9 mph20%29.80 "HgN/A
8:30 pm91 °FClear.9 mph18%29.80 "HgN/A
8:00 pm93 °FClear.10 mph17%29.77 "HgN/A
7:30 pm93 °FClear.10 mph17%29.77 "HgN/A
7:00 pm95 °FSunny.10 mph15%29.77 "HgN/A
6:30 pm97 °FSunny.15 mph16%29.74 "HgN/A
6:00 pm100 °FSunny.13 mph14%29.74 "HgN/A
5:30 pm100 °FSunny.13 mph13%29.74 "HgN/A
5:00 pm100 °FSunny.12 mph13%29.74 "HgN/A
4:30 pm100 °FSunny.10 mph13%29.71 "HgN/A
4:00 pm102 °FSunny.14 mph13%29.71 "HgN/A
3:30 pm100 °FSunny.13 mph14%29.74 "HgN/A
3:00 pm102 °FScattered clouds.16 mph13%29.74 "HgN/A
2:30 pm100 °FScattered clouds.14 mph16%29.74 "HgN/A
2:00 pm100 °FSunny.10 mph16%29.77 "HgN/A
1:46 pm100 °FSunny.17 mph17%29.77 "HgN/A
1:30 pm102 °FSunny.12 mph15%29.77 "HgN/A
1:00 pm100 °FSunny.15 mph16%29.80 "HgN/A
12:30 pm100 °FSunny.15 mph14%29.80 "HgN/A
12:00 pm100 °FSunny.21 mph16%29.83 "HgN/A
11:30 am100 °FSunny.17 mph17%29.86 "HgN/A
11:00 am99 °FSunny.20 mph17%29.86 "HgN/A
10:00 am95 °FSunny.14 mph26%29.89 "HgN/A
Weather by CustomWeather, © 2019

See weather overview